Flag for Australia Weather past 2 weeks in Macquarie Island, Tasmania, Australia

Now
43 °F

Quite cool.


Feels Like: 32 °F
Forecast: 41 / 44 °F
Wind: 29 mph from Northwest

Location: Macquarie Island

Current Time: Jul 29, 2014 at 12:40:32 AM

Latest Report: Jul 28, 2014 at 11:00 PM


Visibility: N/A

Pressure: 29.09 "Hg

Humidity: 94%

Dew point: 41 °F

Location of Macquarie IslandLocation

Historic Weather in Macquarie Island — Graph

°F

Macquarie Island temperature yesterday

Maximum temperature yesterday: 44 °F (at 10:00 AM)
Minimum temperature yesterday: 42 °F (at 4:00 PM)
Average temperature yesterday: 43 °F

Past Weeks' High & Low Weather Summary

 TemperatureHumidityPressure
High44 °F (Jul 17, 7:00 AM)98% (Jul 17, 10:00 PM)30.05 "Hg (Jul 17, 10:00 PM)
Low33 °F (Jul 20, 7:00 PM)61% (Jul 22, 11:00 PM)29.09 "Hg (Jul 28, 8:00 PM)
Average40 °F89%29.67 "Hg
* Reported Jul 13 11:00 PM — Jul 28 11:00 PM, Macquarie Island, Weather by CustomWeather, © 2014

Note: Actual official high and low records may vary slightly from our data, if they occured in-between our weather recording intervals... More about our weather records

Advertising

Macquarie Island weather history for previous 24 hours

 ConditionsComfort  
Time TempWeatherWind HumidityBarometerVisibility
11:00 PM
Jul 28
43 °FQuite cool.29 mph94%29.09 "HgN/A
10:00 PM43 °FPassing clouds.30 mph94%29.09 "Hg9 mi
8:00 PM43 °FQuite cool.29 mph97%29.09 "HgN/A
7:00 PM43 °FFog.28 mph97%29.15 "Hg1 mi
5:00 PM42 °FQuite cool.24 mph96%29.21 "HgN/A
4:00 PM42 °FPartly sunny.21 mph94%29.26 "Hg11 mi
2:00 PM42 °FQuite cool.16 mph96%29.29 "HgN/A
1:00 PM43 °FSprinkles. Low clouds.23 mph94%29.32 "Hg9 mi
11:00 AM43 °FQuite cool.29 mph93%29.35 "HgN/A
10:00 AM44 °FSprinkles. Partly sunny.33 mph94%29.38 "Hg9 mi
8:00 AM44 °FQuite cool.38 mph94%29.35 "HgN/A
7:00 AM43 °FQuite cool.37 mph94%29.38 "HgN/A
5:00 AM43 °FQuite cool.40 mph91%29.44 "HgN/A
4:00 AM43 °FQuite cool.36 mph89%29.50 "HgN/A
2:00 AM42 °FQuite cool.35 mph93%29.60 "HgN/A
1:00 AM42 °FQuite cool.33 mph94%29.64 "HgN/A
Weather by CustomWeather, © 2014

See weather overviewHow to use our weather pages